Airfield :







YOU CAN JOIN US ON...

 
LOGIN :

Register | Disclaimer

   EN    FR    IT 

 









Legend :    VFR   Marginal VFR   IFR   Intensive IFR   Very Intensive IFR
Visi :
Ceiling :
>= 8 km
>= 3000ft
5 to 8 km
1000 to 3000 ft
1500m to 5 km
500 to 1000 ft
800 to 1500m
200 to 500 ft
< 800m
< 200 ft
Symbols :   Thunderstorms  Fog  Heavy snow  Heavy precipitations  Wind > 20 kt






- Airport Elevation : 787 ft
- IATA code : RUT


KRUT - Rutland - Southern Vermont Regional

CURRENT METAR :
  • 250256Z AUTO 12008KT 10SM CLR 17/09 A3035 RMK AO2 SLP268 T01670094 51017 $

EXPIRED METARs :
  • 250156Z AUTO 12009KT 10SM CLR 18/09 A3034 RMK AO2 SLP267 T01780094 $
  • 250056Z AUTO 12007KT 10SM CLR 19/09 A3032 RMK AO2 SLP260 T01940094 $

TAF KRUT
Valid from the 25 at 00:00 until the 26 at 00:00 UTC


242320Z 2500/2524 15010KT P6SM SKC
FM251200 14007KT P6SM FEW150
FM251600 17009KT P6SM SCT150
KZBW FIR / North America



MET'MAP, your aeronautical weather chart ! - Copyright ORBIFLY December 2007 - Disclaimer

ORBIFLY MET'MAP TEAM :

Programming & Development : Alexandra Zaïnal
Concept & original design : Baudouin d'Aumeries
Assistance for programming : Marc-Olivier Méhu
Technical & hardware support : Manuel Goepfert

Contact : metmap@orbifly.com




SOURCES & CREDITS :

   NOAA